[[{"header":{"parameterUnit":"m.s-1","parameterCategory":1,"la1":30.2991,"la2":30.254,"lo1":-89.0895,"lo2":-89.0444,"dy":0.0017,"dx":0.0017,"nx":28,"ny":28,"refTime":"2023-06-25T21:00:00:Z","depth":0,"parameterNumber":2,"parameterNumberName":"U-component_of_WINDS"},"data":[0,0,0,0,0,0,0,0,0,0,0,0,0,0,0,0,0,0,0,0,0,0,0,0,0,0,0,0,0,0,0,0,0,0,0,0,0,0,0,0,0,0,0,0,0,0,0,0,0,0,0,0,0,0,0,0,0,0,1.9069,1.907,0,1.9129,1.913,1.9131,1.9154,1.9153,1.9153,1.9153,1.9218,1.922,1.9222,0,0,0,0,0,0,0,0,0,0,0,0,0,1.8979,1.8981,1.9069,1.907,1.9071,1.9129,1.913,1.9131,1.9154,1.9153,1.9153,1.9153,1.9217,1.922,1.9222,0,0,0,0,0,0,0,0,0,0,0,0,0,1.9027,1.8981,1.9069,1.9089,1.9092,1.9129,1.913,1.9131,1.9154,1.9153,1.9153,1.9153,1.9217,1.9219,1.9222,1.9245,0,0,1.9231,1.9232,0,0,0,0,0,0,0,0,1.9024,1.903,1.9086,1.9088,1.9091,1.9134,1.9122,1.9169,1.9154,1.913,1.9153,1.9153,1.919,1.9195,1.9207,1.9248,1.9251,1.9231,1.9233,1.9234,1.9235,0,0,0,0,0,0,0,1.9021,1.9028,1.9093,1.9086,1.9089,1.9097,1.9103,1.9131,1.9161,1.9132,1.9134,1.9141,1.9192,1.9205,1.9209,1.9252,1.9231,1.9234,1.9235,1.9237,1.9316,1.9317,0,0,0,0,0,0,1.9014,1.9025,1.9091,1.9095,1.9056,1.9098,1.9106,1.912,1.9161,1.9167,1.9141,1.9141,1.92,1.9206,1.9211,1.9242,1.9234,1.9237,1.9238,1.9316,1.9316,1.9317,0,0,0,0,0,0,1.9012,1.9019,1.9089,1.906,1.907,1.91,1.9116,1.9121,1.9134,1.9167,1.9173,1.9148,1.92,1.9207,1.9237,1.9244,1.9238,1.9241,1.9315,1.9316,1.9317,1.9301,0,0,0,0,0,0,1.9009,1.9018,1.9026,1.906,1.9071,1.9112,1.9117,1.9123,1.9139,1.914,1.9176,1.9181,1.92,1.9232,1.9239,1.9248,1.9243,1.9315,1.9316,1.9316,1.9301,1.9302,1.9302,0,0,0,0,0,1.9006,1.902,1.9027,1.9034,1.9081,1.9112,1.9118,1.9139,1.9139,1.9148,1.917,1.918,1.9242,1.9235,1.9243,1.9253,1.9315,1.9315,1.9316,1.9301,1.9302,1.9302,0,0,0,0,0,0,1.8987,1.9025,1.9032,1.9058,1.9082,1.9116,1.9127,1.9138,1.9162,1.9163,1.9188,1.9196,1.9224,1.9241,1.9233,1.9278,1.9279,1.9282,1.9265,1.9265,1.9265,1.9261,1.9245,0,0,0,0,0,1.8986,1.9006,1.9039,1.9059,1.907,1.9097,1.9111,1.9124,1.915,1.916,1.9184,1.921,1.9235,1.9251,1.9277,1.9304,1.9313,1.9315,1.9315,1.9315,1.9317,1.9334,1.9336,1.932,1.932,1.932,0,0,1.8984,1.9007,1.9018,1.9055,1.9075,1.9097,1.9105,1.9127,1.9144,1.9164,1.9193,1.9211,1.9242,1.9271,1.9285,1.9286,1.9323,1.9316,1.9316,1.9318,1.9335,1.9337,1.9338,1.9321,1.932,1.932,0,0,1.8991,1.901,1.9029,1.9049,1.9078,1.9096,1.9101,1.9134,1.9146,1.9175,1.9191,1.9213,1.9256,1.9277,1.9293,1.931,1.9321,1.9318,1.9318,1.9334,1.9336,1.9337,1.9343,1.9345,1.932,1.932,1.932,0,1.8985,1.9017,1.9038,1.906,1.9076,1.9094,1.9115,1.9133,1.917,1.9181,1.9182,1.9237,1.9259,1.9293,1.9298,1.931,1.9317,1.9314,1.9333,1.9335,1.9336,1.9343,1.9345,1.9319,1.9319,1.9319,1.9319,0,1.9009,1.9031,1.9043,1.9077,1.9095,1.9116,1.9141,1.9157,1.9169,1.9188,1.9218,1.9245,1.9276,1.9286,1.9298,1.9322,1.9322,1.9328,1.933,1.9337,1.9344,1.9346,1.9318,1.9318,1.9319,1.9319,0,0,1.9005,1.9051,1.9055,1.9071,1.9105,1.9124,1.9147,1.9176,1.919,1.9215,1.9235,1.9271,1.9277,1.9296,1.9312,1.9326,1.9338,1.933,1.9331,1.9331,1.9367,1.9363,1.9365,1.9346,1.9347,1.9347,1.9365,0,1.9017,1.9057,1.9077,1.9108,1.913,1.9148,1.9168,1.9193,1.9211,1.9233,1.9254,1.9279,1.9284,1.9296,1.9311,1.9333,1.9346,1.9333,1.9366,1.9367,1.9358,1.9368,1.9364,1.9379,1.9368,1.9368,1.9368,0,1.9036,1.906,1.9094,1.9127,1.9137,1.9154,1.9183,1.9204,1.9232,1.9245,1.9266,1.9281,1.9307,1.9307,1.9344,1.9335,1.935,1.9364,1.9365,1.9369,1.9368,1.9373,1.9384,1.9387,1.9373,1.9372,1.9372,0,1.9031,1.9072,1.9097,1.9111,1.915,1.9161,1.9179,1.9207,1.9223,1.925,1.9261,1.9291,1.9307,1.933,1.9353,1.9351,1.9388,1.939,1.94,1.94,1.9407,1.9406,1.9421,1.9417,1.9417,1.9417,1.9416,0,1.9042,1.9062,1.9095,1.9111,1.9135,1.9158,1.9181,1.92,1.9225,1.9246,1.9264,1.9283,1.9313,1.9337,1.9356,1.9384,1.9391,1.9403,1.9407,1.9401,1.9399,1.9411,1.9411,1.9417,1.9417,1.9417,1.9417,0,1.9039,1.9062,1.9092,1.9126,1.9136,1.9151,1.9182,1.9199,1.9218,1.9244,1.9252,1.9282,1.9311,1.9337,1.9375,1.9388,1.9417,1.9423,1.9407,1.9409,1.9418,1.9417,1.9441,1.9446,1.9438,1.9438,1.9438,0,1.9045,1.9061,1.9097,1.9112,1.9128,1.9152,1.9169,1.9194,1.9211,1.9245,1.9258,1.9288,1.9313,1.9359,1.9385,1.9415,1.9422,1.9429,1.9427,1.942,1.9423,1.9421,1.9423,1.9428,1.9428,1.9428,1.9428,0,1.9053,1.9064,1.9087,1.9115,1.9135,1.9158,1.9183,1.9194,1.9223,1.9242,1.9271,1.9291,1.933,1.936,1.9393,1.9412,1.9425,1.9429,1.9433,1.9426,1.9416,1.9422,1.9407,1.9428,1.9428,1.9428,1.9428,1.9428,1.9055,1.907,1.9098,1.9124,1.9145,1.9167,1.9184,1.9206,1.923,1.9263,1.9277,1.9307,1.9336,1.9382,1.9401,1.9426,1.9428,1.9434,1.9435,1.9436,1.9435,1.9412,1.9432,1.9432,1.9432,1.9432,1.9432,0,1.9063,1.9083,1.9106,1.9139,1.916,1.917,1.9198,1.9215,1.9241,1.9267,1.9291,1.9325,1.9354,1.9383,1.9415,1.9429,1.9436,1.9436,1.9436,1.944,1.9431,1.9424,1.943,1.943,1.943,1.943,1.943,1.943,1.907,1.9097,1.9111,1.9149,1.9168,1.9197,1.9212,1.9233,1.9254,1.9291,1.9315,1.9333,1.9361,1.9395,1.9422,1.943,1.9441,1.944,1.945,1.9441,1.9441,1.944,1.9434,1.9442,1.9442,1.9457,1.9457,1.9457]},{"header":{"parameterUnit":"m.s-1","parameterCategory":1,"la1":30.2991,"la2":30.254,"lo1":-89.0895,"lo2":-89.0444,"dy":0.0017,"dx":0.0017,"nx":28,"ny":28,"refTime":"2023-06-25T21:00:00:Z","depth":0,"parameterNumber":3,"parameterNumberName":"V-component_of_WINDS"},"data":[0,0,0,0,0,0,0,0,0,0,0,0,0,0,0,0,0,0,0,0,0,0,0,0,0,0,0,0,0,0,0,0,0,0,0,0,0,0,0,0,0,0,0,0,0,0,0,0,0,0,0,0,0,0,0,0,0,0,3.8235,3.8236,0,3.8307,3.8308,3.8308,3.8338,3.8338,3.8338,3.8338,3.8406,3.8408,3.841,0,0,0,0,0,0,0,0,0,0,0,0,0,3.8116,3.8118,3.8235,3.8236,3.8237,3.8307,3.8308,3.8309,3.8339,3.8338,3.8338,3.8338,3.8405,3.8408,3.841,0,0,0,0,0,0,0,0,0,0,0,0,0,3.8176,3.8119,3.8235,3.826,3.8263,3.8307,3.8308,3.8309,3.8339,3.8338,3.8338,3.8338,3.8405,3.8407,3.841,3.8432,0,0,3.8419,3.842,0,0,0,0,0,0,0,0,3.8172,3.818,3.8256,3.8259,3.8262,3.8314,3.8291,3.835,3.8339,3.831,3.8338,3.8338,3.8375,3.838,3.8394,3.8435,3.8438,3.8419,3.8421,3.8422,3.8423,0,0,0,0,0,0,0,3.8168,3.8177,3.8263,3.8257,3.8261,3.8265,3.8274,3.8302,3.8342,3.8312,3.8315,3.8323,3.8377,3.8391,3.8396,3.8439,3.8419,3.8422,3.8424,3.8425,3.8497,3.8497,0,0,0,0,0,0,3.8161,3.8173,3.8261,3.8265,3.8216,3.8268,3.8277,3.8297,3.8342,3.8349,3.8323,3.8324,3.8386,3.8392,3.8398,3.8425,3.8422,3.8425,3.8427,3.8497,3.8497,3.8498,0,0,0,0,0,0,3.8158,3.8168,3.8258,3.822,3.8232,3.827,3.8292,3.8299,3.8313,3.8351,3.8357,3.8331,3.8386,3.8394,3.8423,3.8428,3.8426,3.8429,3.8497,3.8497,3.8497,3.8479,0,0,0,0,0,0,3.8154,3.8167,3.8178,3.822,3.8234,3.8284,3.8293,3.83,3.8319,3.8321,3.836,3.8366,3.8387,3.8418,3.8426,3.8432,3.8431,3.8497,3.8497,3.8497,3.8479,3.8478,3.8478,0,0,0,0,0,3.815,3.8169,3.8178,3.8189,3.8248,3.8284,3.8292,3.8317,3.8319,3.8329,3.8352,3.8365,3.8426,3.8421,3.843,3.8436,3.8496,3.8497,3.8497,3.8479,3.8478,3.8478,0,0,0,0,0,0,3.8125,3.8175,3.8186,3.822,3.8248,3.8289,3.8303,3.8316,3.8342,3.8343,3.8371,3.838,3.8405,3.8424,3.8418,3.8458,3.8462,3.8464,3.8445,3.8445,3.8444,3.8439,3.8434,0,0,0,0,0,3.8124,3.8151,3.8192,3.8218,3.8232,3.8264,3.8281,3.8298,3.8327,3.8339,3.8364,3.839,3.8415,3.8431,3.8456,3.8481,3.8489,3.849,3.8489,3.8488,3.849,3.8502,3.8502,3.8499,3.8499,3.8499,0,0,3.8121,3.8152,3.8167,3.8214,3.8237,3.8262,3.8274,3.8301,3.8318,3.8342,3.8371,3.839,3.842,3.8447,3.846,3.8463,3.8492,3.8489,3.8488,3.849,3.8502,3.8503,3.8503,3.8499,3.8499,3.8499,0,0,3.8129,3.8156,3.8179,3.8202,3.8238,3.8259,3.8264,3.8303,3.8317,3.8347,3.8364,3.8384,3.8427,3.8447,3.8463,3.8475,3.8486,3.8482,3.8478,3.849,3.849,3.849,3.8492,3.8493,3.8483,3.8483,3.8483,0,3.8121,3.8161,3.8189,3.8214,3.8232,3.8255,3.8277,3.8298,3.8339,3.835,3.8353,3.8405,3.8428,3.8458,3.846,3.8473,3.8478,3.8478,3.8488,3.8488,3.8489,3.8492,3.8493,3.8482,3.8482,3.8482,3.8482,0,3.8148,3.8175,3.8189,3.8229,3.8249,3.8272,3.8301,3.8317,3.8331,3.8351,3.8378,3.8406,3.8435,3.8444,3.8458,3.8475,3.8476,3.8483,3.8488,3.8488,3.8491,3.8492,3.8481,3.8481,3.8481,3.8482,0,0,3.8144,3.8197,3.8202,3.8219,3.8259,3.8279,3.8301,3.8332,3.8344,3.837,3.8388,3.8422,3.8429,3.8446,3.8462,3.8472,3.8477,3.8478,3.8479,3.8476,3.8495,3.8489,3.849,3.8485,3.8485,3.8485,3.8492,0,3.8156,3.82,3.8224,3.8256,3.828,3.83,3.8319,3.8344,3.8362,3.8383,3.8402,3.8425,3.8432,3.8443,3.8454,3.8474,3.8481,3.8474,3.8499,3.85,3.8491,3.8492,3.8487,3.8492,3.8494,3.8494,3.8494,0,3.8177,3.8204,3.8239,3.8273,3.8284,3.8301,3.8329,3.8349,3.8376,3.8388,3.8407,3.8422,3.8443,3.8446,3.8474,3.8468,3.848,3.8491,3.8491,3.8495,3.8497,3.8494,3.8495,3.8495,3.8496,3.8496,3.8496,0,3.8169,3.8213,3.824,3.8254,3.8295,3.8306,3.8323,3.8349,3.8365,3.8389,3.8398,3.8423,3.8437,3.8455,3.8475,3.8476,3.85,3.8505,3.8509,3.8509,3.8514,3.8513,3.8515,3.8522,3.8522,3.8522,3.8522,0,3.818,3.82,3.8236,3.8252,3.8274,3.83,3.832,3.8338,3.8361,3.8379,3.8398,3.8413,3.844,3.8458,3.8474,3.8493,3.8499,3.8508,3.8512,3.8507,3.8505,3.8514,3.8514,3.8522,3.8522,3.8522,3.8522,0,3.8175,3.82,3.823,3.8266,3.8275,3.8289,3.8318,3.8333,3.8351,3.8373,3.838,3.8408,3.843,3.8452,3.8481,3.8492,3.8511,3.8516,3.8502,3.8504,3.8507,3.8506,3.8514,3.8516,3.8522,3.8522,3.8522,0,3.818,3.8196,3.8233,3.8247,3.8264,3.8286,3.8302,3.8326,3.8342,3.8371,3.8382,3.8405,3.8426,3.846,3.8481,3.8503,3.8509,3.851,3.8512,3.8505,3.8507,3.8506,3.8507,3.8509,3.8509,3.8509,3.8509,0,3.8186,3.8197,3.822,3.8247,3.8266,3.8288,3.831,3.832,3.8348,3.8363,3.8387,3.8402,3.8432,3.8454,3.8478,3.8493,3.8505,3.8508,3.851,3.8504,3.8495,3.8499,3.8499,3.8508,3.8508,3.8508,3.8508,3.8508,3.8186,3.82,3.8228,3.8252,3.8271,3.8291,3.8306,3.8326,3.8346,3.8373,3.8385,3.8408,3.8431,3.8465,3.8479,3.8496,3.8499,3.8502,3.8503,3.8503,3.8501,3.8492,3.85,3.85,3.85,3.85,3.85,0,3.8191,3.821,3.8232,3.8262,3.8281,3.8291,3.8315,3.8329,3.835,3.8371,3.839,3.8415,3.8436,3.8459,3.848,3.8489,3.8495,3.8494,3.8493,3.8496,3.8497,3.8493,3.8489,3.8489,3.8489,3.8489,3.8489,3.8489,3.8196,3.8221,3.8234,3.8267,3.8284,3.8308,3.8321,3.8338,3.8355,3.8382,3.84,3.8415,3.8436,3.8459,3.8478,3.8483,3.849,3.8487,3.8494,3.8495,3.8496,3.8497,3.8493,3.8489,3.8489,3.8492,3.8492,3.8492]}]]